Time,TemperatureF,DewpointF,PressureIn,WindDirection,WindDirectionDegrees,WindSpeedMPH,WindSpeedGustMPH,Humidity,HourlyPrecipIn,Conditions,Clouds,dailyrainin,SoftwareType,DateUTC
2013-02-01 00:02:00,-9.1,-15.9,30.31,West,273,2.0,5.0,71,0.00,,SKC,0.00,VWS V14.01,2013-02-01 06:02:00,
2013-02-01 00:07:00,-9.2,-16.0,30.31,WNW,296,2.0,7.0,71,0.00,,SKC,0.00,VWS V14.01,2013-02-01 06:07:00,
2013-02-01 00:12:00,-9.2,-16.0,30.31,NW,311,2.0,7.0,71,0.00,,SKC,0.00,VWS V14.01,2013-02-01 06:12:00,
2013-02-01 00:17:00,-9.3,-16.1,30.31,West,281,2.0,7.0,71,0.00,,SKC,0.00,VWS V14.01,2013-02-01 06:17:00,
2013-02-01 00:22:00,-9.4,-16.2,30.32,WSW,246,1.0,7.0,71,0.00,,SKC,0.00,VWS V14.01,2013-02-01 06:22:00,
2013-02-01 00:27:00,-9.5,-16.3,30.32,WNW,288,4.0,7.0,71,0.00,,SKC,0.00,VWS V14.01,2013-02-01 06:27:00,
2013-02-01 00:32:00,-9.5,-16.3,30.32,WSW,255,1.0,7.0,71,0.00,,SKC,0.00,VWS V14.01,2013-02-01 06:32:00,
2013-02-01 00:37:00,-9.6,-16.4,30.32,WNW,300,0.0,7.0,71,0.00,,SKC,0.00,VWS V14.01,2013-02-01 06:37:00,
2013-02-01 00:42:00,-9.6,-16.4,30.32,WSW,237,0.0,7.0,71,0.00,,SKC,0.00,VWS V14.01,2013-02-01 06:42:00,
2013-02-01 00:47:00,-9.7,-16.5,30.32,NNW,344,1.0,7.0,71,0.00,,SKC,0.00,VWS V14.01,2013-02-01 06:47:00,
2013-02-01 00:52:00,-9.8,-16.6,30.32,WSW,248,0.0,7.0,71,0.00,,SKC,0.00,VWS V14.01,2013-02-01 06:52:00,
2013-02-01 00:57:00,-9.9,-16.7,30.32,WNW,302,1.0,7.0,71,0.00,,SKC,0.00,VWS V14.01,2013-02-01 06:57:00,
2013-02-01 01:02:00,-10.0,-16.5,30.32,WNW,292,2.0,6.0,72,0.00,,SKC,0.00,VWS V14.01,2013-02-01 07:02:00,
2013-02-01 01:07:00,-10.0,-16.5,30.32,SW,219,3.0,6.0,72,0.00,,SKC,0.00,VWS V14.01,2013-02-01 07:07:00,
2013-02-01 01:12:00,-10.1,-16.6,30.33,West,259,0.0,6.0,72,0.00,,SKC,0.00,VWS V14.01,2013-02-01 07:12:00,
2013-02-01 01:17:00,-10.2,-16.7,30.33,West,276,1.0,7.0,72,0.00,,SKC,0.00,VWS V14.01,2013-02-01 07:17:00,
2013-02-01 01:22:00,-10.3,-16.8,30.32,West,277,0.0,7.0,72,0.00,,SKC,0.00,VWS V14.01,2013-02-01 07:22:00,
2013-02-01 01:27:00,-10.3,-16.8,30.33,SW,228,2.0,7.0,72,0.00,,SKC,0.00,VWS V14.01,2013-02-01 07:27:00,
2013-02-01 01:32:00,-10.4,-16.9,30.33,WNW,298,2.0,5.0,72,0.00,,SKC,0.00,VWS V14.01,2013-02-01 07:32:00,
2013-02-01 01:37:00,-10.4,-16.9,30.33,West,269,4.0,7.0,72,0.00,,SKC,0.00,VWS V14.01,2013-02-01 07:37:00,
2013-02-01 01:42:00,-10.5,-17.0,30.33,WSW,241,1.0,7.0,72,0.00,,SKC,0.00,VWS V14.01,2013-02-01 07:42:00,
2013-02-01 01:47:00,-10.6,-17.1,30.33,West,261,0.0,7.0,72,0.00,,SKC,0.00,VWS V14.01,2013-02-01 07:47:00,
2013-02-01 01:52:00,-10.7,-17.2,30.33,WSW,254,0.0,7.0,72,0.00,,SKC,0.00,VWS V14.01,2013-02-01 07:52:00,
2013-02-01 01:57:00,-10.7,-17.2,30.33,WNW,293,1.0,7.0,72,0.00,,SKC,0.00,VWS V14.01,2013-02-01 07:57:00,
2013-02-01 02:02:00,-10.9,-17.1,30.33,WSW,252,4.0,4.0,73,0.00,,SKC,0.00,VWS V14.01,2013-02-01 08:02:00,
2013-02-01 02:07:00,-10.9,-17.1,30.33,WNW,297,1.0,6.0,73,0.00,,SKC,0.00,VWS V14.01,2013-02-01 08:07:00,
2013-02-01 02:12:00,-11.0,-17.2,30.33,NW,308,0.0,6.0,73,0.00,,SKC,0.00,VWS V14.01,2013-02-01 08:12:00,
2013-02-01 02:17:00,-11.1,-17.3,30.33,NNW,327,4.0,7.0,73,0.00,,SKC,0.00,VWS V14.01,2013-02-01 08:17:00,
2013-02-01 02:22:00,-11.1,-17.3,30.33,West,274,0.0,7.0,73,0.00,,SKC,0.00,VWS V14.01,2013-02-01 08:22:00,
2013-02-01 02:27:00,-11.2,-17.4,30.33,West,261,0.0,7.0,73,0.00,,SKC,0.00,VWS V14.01,2013-02-01 08:27:00,
2013-02-01 02:32:00,-11.3,-17.5,30.33,West,273,0.0,4.0,73,0.00,,SKC,0.00,VWS V14.01,2013-02-01 08:32:00,
2013-02-01 02:37:00,-11.4,-17.6,30.33,West,273,0.0,4.0,73,0.00,,SKC,0.00,VWS V14.01,2013-02-01 08:37:00,
2013-02-01 02:42:00,-11.5,-17.7,30.33,West,273,1.0,4.0,73,0.00,,SKC,0.00,VWS V14.01,2013-02-01 08:42:00,
2013-02-01 02:47:00,-11.6,-17.5,30.34,West,263,0.0,4.0,74,0.00,,SKC,0.00,VWS V14.01,2013-02-01 08:47:00,
2013-02-01 02:52:00,-11.7,-17.6,30.33,WSW,244,0.0,4.0,74,0.00,,SKC,0.00,VWS V14.01,2013-02-01 08:52:00,
2013-02-01 02:57:00,-11.8,-17.7,30.33,WSW,244,0.0,4.0,74,0.00,,SKC,0.00,VWS V14.01,2013-02-01 08:57:00,
2013-02-01 03:02:00,-12.0,-17.9,30.34,WSW,244,0.0,1.0,74,0.00,,SKC,0.00,VWS V14.01,2013-02-01 09:02:00,
2013-02-01 03:07:00,-12.1,-18.0,30.33,WSW,244,0.0,2.0,74,0.00,,SKC,0.00,VWS V14.01,2013-02-01 09:07:00,
2013-02-01 03:12:00,-12.2,-18.1,30.33,WSW,244,0.0,2.0,74,0.00,,SKC,0.00,VWS V14.01,2013-02-01 09:12:00,
2013-02-01 03:17:00,-12.4,-18.3,30.33,WSW,244,0.0,2.0,74,0.00,,SKC,0.00,VWS V14.01,2013-02-01 09:17:00,
2013-02-01 03:22:00,-12.5,-18.4,30.33,WSW,244,0.0,2.0,74,0.00,,SKC,0.00,VWS V14.01,2013-02-01 09:22:00,
2013-02-01 03:27:00,-12.7,-18.4,30.34,WSW,244,0.0,2.0,75,0.00,,SKC,0.00,VWS V14.01,2013-02-01 09:27:00,
2013-02-01 03:32:00,-12.8,-18.5,30.33,WSW,244,0.0,0.0,75,0.00,,SKC,0.00,VWS V14.01,2013-02-01 09:32:00,
2013-02-01 03:37:00,-12.9,-18.5,30.33,WSW,244,0.0,1.0,75,0.00,,SKC,0.00,VWS V14.01,2013-02-01 09:37:00,
2013-02-01 03:42:00,-13.0,-18.6,30.34,WSW,244,0.0,1.0,75,0.00,,SKC,0.00,VWS V14.01,2013-02-01 09:42:00,
2013-02-01 03:47:00,-13.1,-18.7,30.34,WSW,244,0.0,1.0,75,0.00,,SKC,0.00,VWS V14.01,2013-02-01 09:47:00,
2013-02-01 03:52:00,-13.3,-18.9,30.34,WSW,244,0.0,1.0,75,0.00,,SKC,0.00,VWS V14.01,2013-02-01 09:52:00,
2013-02-01 03:57:00,-13.5,-18.9,30.34,WSW,244,1.0,1.0,76,0.00,,SKC,0.00,VWS V14.01,2013-02-01 09:57:00,
2013-02-01 04:02:00,-13.6,-19.0,30.34,WSW,244,0.0,2.0,76,0.00,,SKC,0.00,VWS V14.01,2013-02-01 10:02:00,
2013-02-01 04:07:00,-13.8,-19.2,30.34,WSW,244,0.0,2.0,76,0.00,,SKC,0.00,VWS V14.01,2013-02-01 10:07:00,
2013-02-01 04:12:00,-13.9,-19.0,30.34,WSW,244,0.0,2.0,77,0.00,,SKC,0.00,VWS V14.01,2013-02-01 10:12:00,
2013-02-01 04:17:00,-13.9,-19.0,30.35,WSW,244,1.0,2.0,77,0.00,,SKC,0.00,VWS V14.01,2013-02-01 10:17:00,
2013-02-01 04:22:00,-14.0,-19.1,30.35,WSW,244,0.0,2.0,77,0.00,,SKC,0.00,VWS V14.01,2013-02-01 10:22:00,
2013-02-01 04:27:00,-14.2,-19.3,30.35,WSW,244,0.0,2.0,77,0.00,,SKC,0.00,VWS V14.01,2013-02-01 10:27:00,
2013-02-01 04:32:00,-14.2,-19.3,30.35,WSW,244,0.0,1.0,77,0.00,,SKC,0.00,VWS V14.01,2013-02-01 10:32:00,
2013-02-01 04:37:00,-14.2,-19.1,30.35,WSW,244,0.0,1.0,78,0.00,,SKC,0.00,VWS V14.01,2013-02-01 10:37:00,
2013-02-01 04:42:00,-14.3,-19.2,30.35,WSW,244,0.0,1.0,78,0.00,,SKC,0.00,VWS V14.01,2013-02-01 10:42:00,
2013-02-01 04:47:00,-14.3,-19.2,30.35,WSW,244,0.0,2.0,78,0.00,,SKC,0.00,VWS V14.01,2013-02-01 10:47:00,
2013-02-01 04:52:00,-14.3,-19.2,30.35,WSW,244,0.0,2.0,78,0.00,,SKC,0.00,VWS V14.01,2013-02-01 10:52:00,
2013-02-01 04:57:00,-14.3,-19.2,30.36,WSW,244,0.0,2.0,78,0.00,,SKC,0.00,VWS V14.01,2013-02-01 10:57:00,
2013-02-01 05:02:00,-14.3,-19.2,30.35,WSW,244,0.0,1.0,78,0.00,,SKC,0.00,VWS V14.01,2013-02-01 11:02:00,
2013-02-01 05:07:00,-14.2,-19.1,30.35,SW,232,0.0,3.0,78,0.00,,SKC,0.00,VWS V14.01,2013-02-01 11:07:00,
2013-02-01 05:12:00,-14.3,-19.4,30.36,SW,232,1.0,3.0,77,0.00,,SKC,0.00,VWS V14.01,2013-02-01 11:12:00,
2013-02-01 05:17:00,-14.4,-19.5,30.36,SW,232,0.0,3.0,77,0.00,,SKC,0.00,VWS V14.01,2013-02-01 11:17:00,
2013-02-01 05:22:00,-14.5,-19.6,30.36,SW,232,0.0,3.0,77,0.00,,SKC,0.00,VWS V14.01,2013-02-01 11:22:00,
2013-02-01 05:27:00,-14.5,-19.4,30.36,SW,232,0.0,3.0,78,0.00,,SKC,0.00,VWS V14.01,2013-02-01 11:27:00,
2013-02-01 05:32:00,-14.6,-19.5,30.36,SW,232,0.0,1.0,78,0.00,,SKC,0.00,VWS V14.01,2013-02-01 11:32:00,
2013-02-01 05:37:00,-14.7,-19.5,30.36,SW,232,2.0,2.0,78,0.00,,SKC,0.00,VWS V14.01,2013-02-01 11:37:00,
2013-02-01 05:42:00,-14.8,-19.6,30.36,SW,232,0.0,2.0,78,0.00,,SKC,0.00,VWS V14.01,2013-02-01 11:42:00,
2013-02-01 05:47:00,-14.8,-19.6,30.36,SW,232,0.0,2.0,78,0.00,,SKC,0.00,VWS V14.01,2013-02-01 11:47:00,
2013-02-01 05:52:00,-14.9,-19.7,30.36,SW,232,0.0,2.0,78,0.00,,SKC,0.00,VWS V14.01,2013-02-01 11:52:00,
2013-02-01 05:57:00,-14.9,-19.7,30.36,SW,232,0.0,2.0,78,0.00,,SKC,0.00,VWS V14.01,2013-02-01 11:57:00,
2013-02-01 06:02:00,-14.8,-19.4,30.36,SW,232,0.0,2.0,79,0.00,,SKC,0.00,VWS V14.01,2013-02-01 12:02:00,
2013-02-01 06:07:00,-14.9,-19.7,30.36,SW,232,0.0,2.0,78,0.00,,SKC,0.00,VWS V14.01,2013-02-01 12:07:00,
2013-02-01 06:12:00,-15.1,-20.2,30.36,SW,232,0.0,2.0,77,0.00,,SKC,0.00,VWS V14.01,2013-02-01 12:12:00,
2013-02-01 06:17:00,-15.3,-20.4,30.36,SW,232,0.0,2.0,77,0.00,,SKC,0.00,VWS V14.01,2013-02-01 12:17:00,
2013-02-01 06:22:00,-15.6,-20.7,30.36,SW,232,0.0,2.0,77,0.00,,SKC,0.00,VWS V14.01,2013-02-01 12:22:00,
2013-02-01 06:27:00,-15.9,-21.0,30.36,SW,232,0.0,2.0,77,0.00,,SKC,0.00,VWS V14.01,2013-02-01 12:27:00,
2013-02-01 06:32:00,-16.1,-21.2,30.36,SW,232,0.0,0.0,77,0.00,,SKC,0.00,VWS V14.01,2013-02-01 12:32:00,
2013-02-01 06:37:00,-16.3,-21.4,30.36,SW,232,0.0,0.0,77,0.00,,SKC,0.00,VWS V14.01,2013-02-01 12:37:00,
2013-02-01 06:44:00,-16.4,-21.5,30.36,SW,232,0.0,0.0,77,0.00,,SKC,0.00,VWS V14.01,2013-02-01 12:44:00,
2013-02-01 06:49:00,-17.0,-22.0,30.36,SW,232,0.0,0.0,77,0.00,,SKC,0.00,VWS V14.01,2013-02-01 12:49:00,
2013-02-01 06:54:00,-17.2,-22.0,30.36,SW,232,0.0,0.0,78,0.00,,SKC,0.00,VWS V14.01,2013-02-01 12:54:00,
2013-02-01 06:59:00,-17.4,-22.2,30.36,SW,232,0.0,0.0,78,0.00,,SKC,0.00,VWS V14.01,2013-02-01 12:59:00,
2013-02-01 07:04:00,-17.6,-22.4,30.37,SW,232,0.0,0.0,78,0.00,,SKC,0.00,VWS V14.01,2013-02-01 13:04:00,
2013-02-01 07:09:00,-17.8,-22.6,30.37,SW,232,0.0,0.0,78,0.00,,SKC,0.00,VWS V14.01,2013-02-01 13:09:00,
2013-02-01 07:14:00,-17.9,-22.7,30.36,SW,232,0.0,0.0,78,0.00,,SKC,0.00,VWS V14.01,2013-02-01 13:14:00,
2013-02-01 07:19:00,-18.0,-22.8,30.36,SW,232,0.0,0.0,78,0.00,,SKC,0.00,VWS V14.01,2013-02-01 13:19:00,
2013-02-01 07:24:00,-18.2,-22.7,30.36,SW,232,0.0,0.0,79,0.00,,SKC,0.00,VWS V14.01,2013-02-01 13:24:00,
2013-02-01 07:29:00,-18.3,-22.8,30.36,SW,232,0.0,0.0,79,0.00,,SKC,0.00,VWS V14.01,2013-02-01 13:29:00,
2013-02-01 07:34:00,-18.3,-22.8,30.36,SW,232,0.0,0.0,79,0.00,,SKC,0.00,VWS V14.01,2013-02-01 13:34:00,
2013-02-01 07:39:00,-18.4,-22.9,30.36,SW,232,0.0,0.0,79,0.00,,SKC,0.00,VWS V14.01,2013-02-01 13:39:00,
2013-02-01 07:44:00,-18.5,-23.0,30.36,SW,232,0.0,0.0,79,0.00,,SKC,0.00,VWS V14.01,2013-02-01 13:44:00,
2013-02-01 07:49:00,-18.6,-23.1,30.36,SW,232,0.0,0.0,79,0.00,,SKC,0.00,VWS V14.01,2013-02-01 13:49:00,
2013-02-01 07:54:00,-18.6,-23.1,30.36,SW,232,0.0,0.0,79,0.00,,SKC,0.00,VWS V14.01,2013-02-01 13:54:00,
2013-02-01 07:59:00,-18.5,-22.8,30.36,SW,232,0.0,0.0,80,0.00,,SKC,0.00,VWS V14.01,2013-02-01 13:59:00,
2013-02-01 08:04:00,-18.2,-22.5,30.36,SW,232,0.0,0.0,80,0.00,,SKC,0.00,VWS V14.01,2013-02-01 14:04:00,
2013-02-01 08:09:00,-17.7,-21.8,30.36,SW,232,0.0,0.0,81,0.00,,SKC,0.00,VWS V14.01,2013-02-01 14:09:00,
2013-02-01 08:14:00,-16.9,-20.7,30.35,SW,232,0.0,0.0,82,0.00,,SKC,0.00,VWS V14.01,2013-02-01 14:14:00,
2013-02-01 08:19:00,-15.9,-19.5,30.35,SW,232,0.0,0.0,83,0.00,,SKC,0.00,VWS V14.01,2013-02-01 14:19:00,
2013-02-01 08:24:00,-15.2,-19.1,30.35,SW,232,0.0,0.0,82,0.00,,SKC,0.00,VWS V14.01,2013-02-01 14:24:00,
2013-02-01 08:29:00,-14.6,-18.7,30.35,SW,232,0.0,0.0,81,0.00,,SKC,0.00,VWS V14.01,2013-02-01 14:29:00,
2013-02-01 08:34:00,-13.9,-18.0,30.35,SW,232,0.0,0.0,81,0.00,,SKC,0.00,VWS V14.01,2013-02-01 14:34:00,
2013-02-01 08:39:00,-13.5,-17.9,30.35,SW,232,0.0,0.0,80,0.00,,SKC,0.00,VWS V14.01,2013-02-01 14:39:00,
2013-02-01 08:44:00,-13.0,-17.6,30.35,SW,232,0.0,0.0,79,0.00,,SKC,0.00,VWS V14.01,2013-02-01 14:44:00,
2013-02-01 08:49:00,-12.5,-17.1,30.35,SW,232,0.0,2.0,79,0.00,,SKC,0.00,VWS V14.01,2013-02-01 14:49:00,
2013-02-01 08:53:00,-11.9,-16.8,30.35,SW,232,0.0,2.0,78,0.00,,SKC,0.00,VWS V14.01,2013-02-01 14:53:00,
2013-02-01 08:58:00,-11.0,-15.9,30.35,SW,232,0.0,2.0,78,0.00,,SKC,0.00,VWS V14.01,2013-02-01 14:58:00,
2013-02-01 09:03:00,-10.6,-16.1,30.35,SW,232,0.0,3.0,76,0.00,,SKC,0.00,VWS V14.01,2013-02-01 15:03:00,
2013-02-01 09:08:00,-10.6,-16.3,30.35,SW,232,1.0,3.0,75,0.00,,SKC,0.00,VWS V14.01,2013-02-01 15:08:00,
2013-02-01 09:13:00,-10.5,-16.5,30.34,West,268,0.0,3.0,74,0.00,,SKC,0.00,VWS V14.01,2013-02-01 15:13:00,
2013-02-01 09:18:00,-10.3,-16.3,30.34,WNW,300,0.0,3.0,74,0.00,,SKC,0.00,VWS V14.01,2013-02-01 15:18:00,
2013-02-01 09:24:00,-10.4,-16.6,30.34,SW,236,0.0,4.0,73,0.00,,SKC,0.00,VWS V14.01,2013-02-01 15:24:00,
2013-02-01 09:29:00,-10.0,-16.3,30.34,SW,236,2.0,4.0,73,0.00,,SKC,0.00,VWS V14.01,2013-02-01 15:29:00,
2013-02-01 09:34:00,-10.0,-16.5,30.34,West,263,0.0,2.0,72,0.00,,SKC,0.00,VWS V14.01,2013-02-01 15:34:00,
2013-02-01 09:39:00,-9.7,-16.2,30.33,West,274,0.0,2.0,72,0.00,,SKC,0.00,VWS V14.01,2013-02-01 15:39:00,
2013-02-01 09:44:00,-9.1,-15.9,30.33,WSW,241,1.0,4.0,71,0.00,,SKC,0.00,VWS V14.01,2013-02-01 15:44:00,
2013-02-01 09:49:00,-9.0,-16.1,30.33,South,169,0.0,4.0,70,0.00,,SKC,0.00,VWS V14.01,2013-02-01 15:49:00,
2013-02-01 09:54:00,-8.5,-15.6,30.33,South,171,2.0,4.0,70,0.00,,SKC,0.00,VWS V14.01,2013-02-01 15:54:00,
2013-02-01 09:58:00,-7.9,-15.3,30.34,ESE,103,0.0,4.0,69,0.00,,SKC,0.00,VWS V14.01,2013-02-01 15:58:00,
2013-02-01 10:03:00,-7.7,-15.7,30.34,West,275,4.0,4.0,67,0.00,,SKC,0.00,VWS V14.01,2013-02-01 16:03:00,
2013-02-01 10:08:00,-7.3,-15.6,30.33,WNW,301,2.0,4.0,66,0.00,,SKC,0.00,VWS V14.01,2013-02-01 16:08:00,
2013-02-01 10:13:00,-7.2,-15.5,30.33,WNW,301,2.0,4.0,66,0.00,,SKC,0.00,VWS V14.01,2013-02-01 16:13:00,
2013-02-01 10:18:00,-6.8,-15.2,30.33,SE,124,0.0,5.0,66,0.00,,SKC,0.00,VWS V14.01,2013-02-01 16:18:00,
2013-02-01 10:23:00,-6.8,-15.8,30.32,SSW,207,0.0,5.0,64,0.00,,SKC,0.00,VWS V14.01,2013-02-01 16:23:00,
2013-02-01 10:28:00,-6.9,-15.9,30.32,SE,138,1.0,5.0,64,0.00,,SKC,0.00,VWS V14.01,2013-02-01 16:28:00,
2013-02-01 10:33:00,-7.1,-16.4,30.32,NNW,328,0.0,4.0,63,0.00,,SKC,0.00,VWS V14.01,2013-02-01 16:33:00,
2013-02-01 10:38:00,-6.9,-15.9,30.32,West,269,0.0,4.0,64,0.00,,SKC,0.00,VWS V14.01,2013-02-01 16:38:00,
2013-02-01 10:43:00,-6.3,-15.3,30.33,WSW,240,0.0,4.0,64,0.00,,SKC,0.00,VWS V14.01,2013-02-01 16:43:00,
2013-02-01 10:48:00,-6.1,-15.4,30.33,WSW,250,0.0,4.0,63,0.00,,SKC,0.00,VWS V14.01,2013-02-01 16:48:00,
2013-02-01 10:53:00,-5.5,-14.8,30.33,WNW,301,2.0,4.0,63,0.00,,SKC,0.00,VWS V14.01,2013-02-01 16:53:00,
2013-02-01 10:58:00,-5.3,-15.0,30.32,East,80,0.0,4.0,62,0.00,,SKC,0.00,VWS V14.01,2013-02-01 16:58:00,
2013-02-01 11:03:00,-5.2,-15.2,30.32,WNW,293,0.0,4.0,61,0.00,,SKC,0.00,VWS V14.01,2013-02-01 17:03:00,
2013-02-01 11:08:00,-4.9,-14.9,30.32,SSE,149,0.0,4.0,61,0.00,,SKC,0.00,VWS V14.01,2013-02-01 17:08:00,
2013-02-01 11:13:00,-4.5,-14.8,30.32,South,182,0.0,5.0,60,0.00,,SKC,0.00,VWS V14.01,2013-02-01 17:13:00,
2013-02-01 11:18:00,-4.6,-15.3,30.32,South,186,0.0,5.0,59,0.00,,SKC,0.00,VWS V14.01,2013-02-01 17:18:00,
2013-02-01 11:23:00,-4.3,-15.0,30.32,SSE,151,0.0,5.0,59,0.00,,SKC,0.00,VWS V14.01,2013-02-01 17:23:00,
2013-02-01 11:28:00,-4.1,-14.8,30.32,SSE,163,0.0,5.0,59,0.00,,SKC,0.00,VWS V14.01,2013-02-01 17:28:00,
2013-02-01 11:33:00,-3.7,-14.1,30.32,NNE,18,1.0,2.0,60,0.00,,SKC,0.00,VWS V14.01,2013-02-01 17:33:00,
2013-02-01 11:38:00,-3.8,-14.9,30.31,SE,133,1.0,6.0,58,0.00,,SKC,0.00,VWS V14.01,2013-02-01 17:38:00,
2013-02-01 11:43:00,-4.0,-15.0,30.31,SSE,159,1.0,6.0,58,0.00,,SKC,0.00,VWS V14.01,2013-02-01 17:43:00,
2013-02-01 11:48:00,-4.0,-15.0,30.30,SSE,148,0.0,6.0,58,0.00,,SKC,0.00,VWS V14.01,2013-02-01 17:48:00,
2013-02-01 11:53:00,-3.9,-14.9,30.31,SW,229,0.0,6.0,58,0.00,,SKC,0.00,VWS V14.01,2013-02-01 17:53:00,
2013-02-01 11:58:00,-3.6,-14.7,30.30,East,85,2.0,6.0,58,0.00,,SKC,0.00,VWS V14.01,2013-02-01 17:58:00,
2013-02-01 12:03:00,-3.4,-14.8,30.30,SE,144,5.0,7.0,57,0.00,,SKC,0.00,VWS V14.01,2013-02-01 18:03:00,
2013-02-01 12:08:00,-3.7,-15.1,30.30,SE,140,2.0,7.0,57,0.00,,SKC,0.00,VWS V14.01,2013-02-01 18:08:00,
2013-02-01 12:13:00,-3.9,-15.3,30.30,ESE,117,6.0,7.0,57,0.00,,SKC,0.00,VWS V14.01,2013-02-01 18:13:00,
2013-02-01 12:18:00,-3.8,-14.9,30.30,SE,142,1.0,8.0,58,0.00,,SKC,0.00,VWS V14.01,2013-02-01 18:18:00,
2013-02-01 12:23:00,-3.6,-14.7,30.30,SE,128,4.0,8.0,58,0.00,,SKC,0.00,VWS V14.01,2013-02-01 18:23:00,
2013-02-01 12:28:00,-3.4,-14.1,30.30,SE,126,0.0,8.0,59,0.00,,SKC,0.00,VWS V14.01,2013-02-01 18:28:00,
2013-02-01 12:33:00,-3.2,-14.3,30.30,West,267,4.0,4.0,58,0.00,,SKC,0.00,VWS V14.01,2013-02-01 18:33:00,
2013-02-01 12:38:00,-3.0,-14.1,30.29,SSW,210,3.0,7.0,58,0.00,,SKC,0.00,VWS V14.01,2013-02-01 18:38:00,
2013-02-01 12:43:00,-2.7,-13.8,30.29,ESE,123,0.0,7.0,58,0.00,,SKC,0.00,VWS V14.01,2013-02-01 18:43:00,
2013-02-01 12:48:00,-2.4,-13.9,30.28,ESE,112,5.0,9.0,57,0.00,,SKC,0.00,VWS V14.01,2013-02-01 18:48:00,
2013-02-01 12:53:00,-2.4,-13.9,30.28,West,273,0.0,9.0,57,0.00,,SKC,0.00,VWS V14.01,2013-02-01 18:53:00,
2013-02-01 12:58:00,-2.1,-13.6,30.28,East,101,1.0,9.0,57,0.00,,SKC,0.00,VWS V14.01,2013-02-01 18:58:00,
2013-02-01 13:03:00,-2.2,-14.0,30.27,WSW,238,2.0,-999.0,57,-99.99,,,0.00,weatherlink.com 1.10,2013-02-01 19:03:00,
2013-02-01 13:08:00,-1.9,-13.4,30.27,ESE,105,4.0,4.0,57,0.00,,SKC,0.00,VWS V14.01,2013-02-01 19:08:00,
2013-02-01 13:13:00,-1.6,-13.1,30.27,ESE,118,0.0,4.0,57,0.00,,SKC,0.00,VWS V14.01,2013-02-01 19:13:00,
2013-02-01 13:18:00,-1.4,-12.9,30.27,SE,139,0.0,6.0,57,0.00,,SKC,0.00,VWS V14.01,2013-02-01 19:18:00,
2013-02-01 13:23:00,-1.6,-13.5,30.26,ESE,118,0.0,6.0,56,0.00,,SKC,0.00,VWS V14.01,2013-02-01 19:23:00,
2013-02-01 13:28:00,-1.5,-13.0,30.26,ESE,118,0.0,6.0,57,0.00,,SKC,0.00,VWS V14.01,2013-02-01 19:28:00,
2013-02-01 13:33:00,-1.4,-12.6,30.26,SE,125,0.0,5.0,58,0.00,,SKC,0.00,VWS V14.01,2013-02-01 19:33:00,
2013-02-01 13:38:00,-1.4,-12.6,30.25,SE,128,1.0,5.0,58,0.00,,SKC,0.00,VWS V14.01,2013-02-01 19:38:00,
2013-02-01 13:43:00,-1.2,-12.4,30.25,WSW,252,0.0,5.0,58,0.00,,SKC,0.00,VWS V14.01,2013-02-01 19:43:00,
2013-02-01 13:48:00,-1.0,-12.2,30.25,ESE,119,5.0,5.0,58,0.00,,SKC,0.00,VWS V14.01,2013-02-01 19:48:00,
2013-02-01 13:53:00,-0.8,-11.7,30.24,SE,127,2.0,5.0,59,0.00,,SKC,0.00,VWS V14.01,2013-02-01 19:53:00,
2013-02-01 13:58:00,-0.4,-11.3,30.24,SSE,148,0.0,7.0,59,0.00,,SKC,0.00,VWS V14.01,2013-02-01 19:58:00,
2013-02-01 14:03:00,-0.2,-10.8,30.24,WSW,257,4.0,5.0,60,0.00,,SKC,0.00,VWS V14.01,2013-02-01 20:03:00,
2013-02-01 14:08:00,0.1,-10.8,30.24,ESE,110,2.0,6.0,59,0.00,,SKC,0.00,VWS V14.01,2013-02-01 20:08:00,
2013-02-01 14:13:00,0.3,-10.6,30.24,SSE,162,0.0,6.0,59,0.00,,SKC,0.00,VWS V14.01,2013-02-01 20:13:00,
2013-02-01 14:18:00,0.4,-10.9,30.24,South,188,1.0,6.0,58,0.00,,SKC,0.00,VWS V14.01,2013-02-01 20:18:00,
2013-02-01 14:23:00,0.5,-11.1,30.24,West,261,1.0,6.0,57,0.00,,SKC,0.00,VWS V14.01,2013-02-01 20:23:00,
2013-02-01 14:28:00,0.4,-11.2,30.24,SE,143,1.0,6.0,57,0.00,,SKC,0.00,VWS V14.01,2013-02-01 20:28:00,
2013-02-01 14:33:00,0.5,-10.8,30.24,ESE,120,0.0,4.0,58,0.00,,SKC,0.00,VWS V14.01,2013-02-01 20:33:00,
2013-02-01 14:38:00,0.5,-11.1,30.23,SE,134,2.0,5.0,57,0.00,,SKC,0.00,VWS V14.01,2013-02-01 20:38:00,
2013-02-01 14:43:00,0.3,-11.0,30.23,ESE,122,0.0,5.0,58,0.00,,SKC,0.00,VWS V14.01,2013-02-01 20:43:00,
2013-02-01 14:48:00,0.3,-11.0,30.23,SE,125,0.0,5.0,58,0.00,,SKC,0.00,VWS V14.01,2013-02-01 20:48:00,
2013-02-01 14:53:00,0.2,-11.1,30.23,SE,126,1.0,5.0,58,0.00,,SKC,0.00,VWS V14.01,2013-02-01 20:53:00,
2013-02-01 14:58:00,0.2,-11.1,30.22,SE,126,0.0,5.0,58,0.00,,SKC,0.00,VWS V14.01,2013-02-01 20:58:00,
2013-02-01 15:03:00,0.3,-11.0,30.22,SSE,161,0.0,1.0,58,0.00,,SKC,0.00,VWS V14.01,2013-02-01 21:03:00,
2013-02-01 15:08:00,0.4,-11.2,30.22,SE,139,4.0,6.0,57,0.00,,SKC,0.00,VWS V14.01,2013-02-01 21:08:00,
2013-02-01 15:13:00,0.3,-11.0,30.22,South,181,0.0,6.0,58,0.00,,SKC,0.00,VWS V14.01,2013-02-01 21:13:00,
2013-02-01 15:18:00,0.2,-10.7,30.21,ESE,118,0.0,6.0,59,0.00,,SKC,0.00,VWS V14.01,2013-02-01 21:18:00,
2013-02-01 15:23:00,0.2,-10.7,30.22,South,184,0.0,6.0,59,0.00,,SKC,0.00,VWS V14.01,2013-02-01 21:23:00,
2013-02-01 15:28:00,0.3,-10.6,30.22,SE,144,0.0,6.0,59,0.00,,SKC,0.00,VWS V14.01,2013-02-01 21:28:00,
2013-02-01 15:33:00,0.3,-10.6,30.21,ESE,109,0.0,2.0,59,0.00,,SKC,0.00,VWS V14.01,2013-02-01 21:33:00,
2013-02-01 15:38:00,0.3,-10.6,30.21,ESE,104,0.0,2.0,59,0.00,,SKC,0.00,VWS V14.01,2013-02-01 21:38:00,
2013-02-01 15:43:00,0.4,-9.9,30.21,SSE,155,0.0,2.0,61,0.00,,SKC,0.00,VWS V14.01,2013-02-01 21:43:00,
2013-02-01 15:48:00,0.5,-10.1,30.21,ESE,122,0.0,4.0,60,0.00,,SKC,0.00,VWS V14.01,2013-02-01 21:48:00,
2013-02-01 15:53:00,0.5,-10.1,30.21,South,170,0.0,4.0,60,0.00,,SKC,0.00,VWS V14.01,2013-02-01 21:53:00,
2013-02-01 15:58:00,0.5,-9.8,30.20,SE,136,0.0,4.0,61,0.00,,SKC,0.00,VWS V14.01,2013-02-01 21:58:00,
2013-02-01 16:03:00,0.4,-9.9,30.20,SE,132,0.0,4.0,61,0.00,,SKC,0.00,VWS V14.01,2013-02-01 22:03:00,
2013-02-01 16:08:00,0.4,-9.5,30.20,SE,134,0.0,4.0,62,0.00,,SKC,0.00,VWS V14.01,2013-02-01 22:08:00,
2013-02-01 16:13:00,0.5,-9.1,30.20,SE,134,0.0,4.0,63,0.00,,SKC,0.00,VWS V14.01,2013-02-01 22:13:00,
2013-02-01 16:18:00,0.5,-8.8,30.20,SE,134,0.0,4.0,64,0.00,,SKC,0.00,VWS V14.01,2013-02-01 22:18:00,
2013-02-01 16:23:00,0.5,-8.5,30.20,SE,134,0.0,4.0,65,0.00,,SKC,0.00,VWS V14.01,2013-02-01 22:23:00,
2013-02-01 16:28:00,0.4,-8.3,30.19,SE,134,0.0,4.0,66,0.00,,SKC,0.00,VWS V14.01,2013-02-01 22:28:00,
2013-02-01 16:33:00,0.5,-7.6,30.19,SE,134,1.0,1.0,68,0.00,,SKC,0.00,VWS V14.01,2013-02-01 22:33:00,
2013-02-01 16:38:00,0.4,-7.1,30.19,SE,134,0.0,1.0,70,0.00,,SKC,0.00,VWS V14.01,2013-02-01 22:38:00,
2013-02-01 16:43:00,0.2,-7.0,30.19,SE,134,0.0,2.0,71,0.00,,SKC,0.00,VWS V14.01,2013-02-01 22:43:00,
2013-02-01 16:48:00,0.2,-6.7,30.19,SE,134,0.0,2.0,72,0.00,,SKC,0.00,VWS V14.01,2013-02-01 22:48:00,
2013-02-01 16:53:00,0.1,-6.5,30.19,SE,134,0.0,2.0,73,0.00,,SKC,0.00,VWS V14.01,2013-02-01 22:53:00,
2013-02-01 16:58:00,0.1,-6.3,30.19,SE,134,0.0,2.0,74,0.00,,SKC,0.00,VWS V14.01,2013-02-01 22:58:00,
2013-02-01 17:03:00,0.1,-6.3,30.19,SE,134,0.0,0.0,74,0.00,,SKC,0.00,VWS V14.01,2013-02-01 23:03:00,
2013-02-01 17:08:00,0.1,-6.0,30.19,SE,134,0.0,0.0,75,0.00,,SKC,0.00,VWS V14.01,2013-02-01 23:08:00,
2013-02-01 17:13:00,-0.1,-6.0,30.18,SE,134,0.0,0.0,75,0.00,,SKC,0.00,VWS V14.01,2013-02-01 23:13:00,
2013-02-01 17:18:00,-0.1,-6.1,30.18,SE,134,0.0,0.0,75,0.00,,SKC,0.00,VWS V14.01,2013-02-01 23:18:00,
2013-02-01 17:23:00,-0.1,-5.8,30.18,SE,134,0.0,0.0,76,0.00,,SKC,0.00,VWS V14.01,2013-02-01 23:23:00,
2013-02-01 17:28:00,-0.1,-5.6,30.18,SE,134,0.0,2.0,77,0.00,,SKC,0.00,VWS V14.01,2013-02-01 23:28:00,
2013-02-01 17:33:00,-0.2,-5.7,30.18,SE,134,0.0,1.0,77,0.00,,SKC,0.00,VWS V14.01,2013-02-01 23:33:00,
2013-02-01 17:38:00,-0.2,-5.7,30.18,SE,134,0.0,1.0,77,0.00,,SKC,0.00,VWS V14.01,2013-02-01 23:38:00,
2013-02-01 17:43:00,-0.3,-5.5,30.18,SE,134,0.0,1.0,78,0.00,,SKC,0.00,VWS V14.01,2013-02-01 23:43:00,
2013-02-01 17:48:00,-0.3,-5.5,30.18,SE,134,0.0,1.0,78,0.00,,SKC,0.00,VWS V14.01,2013-02-01 23:48:00,
2013-02-01 17:53:00,-0.3,-5.2,30.18,SE,134,0.0,1.0,79,0.00,,SKC,0.00,VWS V14.01,2013-02-01 23:53:00,
2013-02-01 17:58:00,-0.3,-5.2,30.18,SE,134,0.0,1.0,79,0.00,,SKC,0.00,VWS V14.01,2013-02-01 23:58:00,
2013-02-01 18:03:00,-0.3,-5.2,30.18,SE,134,0.0,0.0,79,0.00,,SKC,0.00,VWS V14.01,2013-02-02 00:03:00,
2013-02-01 18:08:00,-0.3,-5.2,30.18,SE,134,0.0,0.0,79,0.00,,SKC,0.00,VWS V14.01,2013-02-02 00:08:00,
2013-02-01 18:13:00,-0.3,-5.0,30.18,SE,134,0.0,0.0,80,0.00,,SKC,0.00,VWS V14.01,2013-02-02 00:13:00,
2013-02-01 18:18:00,-0.2,-4.9,30.18,SE,134,0.0,0.0,80,0.00,,SKC,0.00,VWS V14.01,2013-02-02 00:18:00,
2013-02-01 18:23:00,-0.1,-4.5,30.19,SE,134,0.0,0.0,81,0.00,,SKC,0.00,VWS V14.01,2013-02-02 00:23:00,
2013-02-01 18:28:00,-0.1,-4.5,30.19,SE,134,0.0,1.0,81,0.00,,SKC,0.00,VWS V14.01,2013-02-02 00:28:00,
2013-02-01 18:33:00,-0.1,-4.4,30.19,SE,134,0.0,0.0,81,0.00,,SKC,0.00,VWS V14.01,2013-02-02 00:33:00,
2013-02-01 18:38:00,0.1,-4.3,30.18,SE,134,0.0,0.0,81,0.00,,SKC,0.00,VWS V14.01,2013-02-02 00:38:00,
2013-02-01 18:43:00,0.1,-4.3,30.18,SE,134,0.0,0.0,81,0.00,,SKC,0.00,VWS V14.01,2013-02-02 00:43:00,
2013-02-01 18:48:00,0.2,-4.0,30.18,SE,134,0.0,0.0,82,0.00,,SKC,0.00,VWS V14.01,2013-02-02 00:48:00,
2013-02-01 18:53:00,0.2,-4.0,30.18,SE,134,0.0,0.0,82,0.00,,SKC,0.00,VWS V14.01,2013-02-02 00:53:00,
2013-02-01 18:58:00,0.3,-3.9,30.18,SE,134,0.0,1.0,82,0.00,,SKC,0.00,VWS V14.01,2013-02-02 00:58:00,
2013-02-01 19:03:00,0.3,-3.9,30.18,SE,134,0.0,1.0,82,0.00,,SKC,0.00,VWS V14.01,2013-02-02 01:03:00,
2013-02-01 19:08:00,0.4,-4.0,30.18,SE,134,0.0,1.0,81,0.00,,SKC,0.00,VWS V14.01,2013-02-02 01:08:00,
2013-02-01 19:13:00,0.4,-3.8,30.17,SE,134,0.0,1.0,82,0.00,,SKC,0.00,VWS V14.01,2013-02-02 01:13:00,
2013-02-01 19:18:00,0.4,-3.8,30.17,SE,134,0.0,2.0,82,0.00,,SKC,0.00,VWS V14.01,2013-02-02 01:18:00,
2013-02-01 19:23:00,0.4,-3.8,30.18,SE,134,0.0,2.0,82,0.00,,SKC,0.00,VWS V14.01,2013-02-02 01:23:00,
2013-02-01 19:28:00,0.4,-3.8,30.17,SE,134,0.0,2.0,82,0.00,,SKC,0.00,VWS V14.01,2013-02-02 01:28:00,
2013-02-01 19:33:00,0.5,-3.7,30.17,SE,134,0.0,1.0,82,0.00,,SKC,0.00,VWS V14.01,2013-02-02 01:33:00,
2013-02-01 19:38:00,0.5,-3.4,30.18,SE,134,0.0,1.0,83,0.00,,SKC,0.00,VWS V14.01,2013-02-02 01:38:00,
2013-02-01 19:43:00,0.6,-3.3,30.17,SE,134,0.0,1.0,83,0.00,,SKC,0.00,VWS V14.01,2013-02-02 01:43:00,
2013-02-01 19:48:00,0.6,-3.3,30.18,SE,134,0.0,1.0,83,0.00,,SKC,0.00,VWS V14.01,2013-02-02 01:48:00,
2013-02-01 19:53:00,0.6,-3.3,30.18,SE,134,0.0,1.0,83,0.00,,SKC,0.00,VWS V14.01,2013-02-02 01:53:00,
2013-02-01 19:58:00,0.7,-3.2,30.18,SE,134,0.0,1.0,83,0.00,,SKC,0.00,VWS V14.01,2013-02-02 01:58:00,
2013-02-01 20:03:00,0.8,-3.1,30.18,SE,134,0.0,0.0,83,0.00,,SKC,0.00,VWS V14.01,2013-02-02 02:03:00,
2013-02-01 20:08:00,0.8,-3.1,30.18,SE,134,0.0,0.0,83,0.00,,SKC,0.00,VWS V14.01,2013-02-02 02:08:00,
2013-02-01 20:13:00,0.8,-3.1,30.17,SE,134,0.0,1.0,83,0.00,,SKC,0.00,VWS V14.01,2013-02-02 02:13:00,
2013-02-01 20:18:00,0.9,-3.0,30.17,SE,134,0.0,1.0,83,0.00,,SKC,0.00,VWS V14.01,2013-02-02 02:18:00,
2013-02-01 20:23:00,0.9,-3.0,30.17,SE,134,0.0,1.0,83,0.00,,SKC,0.00,VWS V14.01,2013-02-02 02:23:00,
2013-02-01 20:28:00,0.9,-3.0,30.17,SE,134,0.0,1.0,83,0.00,,SKC,0.00,VWS V14.01,2013-02-02 02:28:00,
2013-02-01 20:33:00,0.9,-3.0,30.17,SE,134,0.0,1.0,83,0.00,,SKC,0.00,VWS V14.01,2013-02-02 02:33:00,
2013-02-01 20:38:00,0.9,-3.0,30.17,SE,134,0.0,1.0,83,0.00,,SKC,0.00,VWS V14.01,2013-02-02 02:38:00,
2013-02-01 20:43:00,0.9,-3.0,30.17,SE,134,0.0,1.0,83,0.00,,SKC,0.00,VWS V14.01,2013-02-02 02:43:00,
2013-02-01 20:48:00,0.9,-2.8,30.16,SE,134,0.0,1.0,84,0.00,,SKC,0.00,VWS V14.01,2013-02-02 02:48:00,
2013-02-01 20:53:00,0.9,-2.8,30.17,SE,134,0.0,2.0,84,0.00,,SKC,0.00,VWS V14.01,2013-02-02 02:53:00,
2013-02-01 20:58:00,0.9,-2.8,30.16,SE,134,0.0,2.0,84,0.00,,SKC,0.00,VWS V14.01,2013-02-02 02:58:00,
2013-02-01 21:03:00,0.9,-2.8,30.16,SE,134,0.0,1.0,84,0.00,,SKC,0.00,VWS V14.01,2013-02-02 03:03:00,
2013-02-01 21:08:00,0.9,-3.0,30.16,SE,134,0.0,2.0,83,0.00,,SKC,0.00,VWS V14.01,2013-02-02 03:08:00,
2013-02-01 21:13:00,0.9,-3.0,30.17,SE,134,0.0,2.0,83,0.00,,SKC,0.00,VWS V14.01,2013-02-02 03:13:00,
2013-02-01 21:18:00,0.8,-3.1,30.16,SE,134,0.0,2.0,83,0.00,,SKC,0.00,VWS V14.01,2013-02-02 03:18:00,
2013-02-01 21:23:00,0.8,-2.9,30.16,SE,134,1.0,2.0,84,0.00,,SKC,0.00,VWS V14.01,2013-02-02 03:23:00,
2013-02-01 21:28:00,0.8,-3.1,30.16,SE,133,1.0,2.0,83,0.00,,SKC,0.00,VWS V14.01,2013-02-02 03:28:00,
2013-02-01 21:33:00,0.8,-3.1,30.16,ENE,75,1.0,2.0,83,0.00,,SKC,0.00,VWS V14.01,2013-02-02 03:33:00,
2013-02-01 21:38:00,0.8,-3.1,30.15,ENE,61,0.0,4.0,83,0.00,,SKC,0.00,VWS V14.01,2013-02-02 03:38:00,
2013-02-01 21:43:00,0.8,-3.1,30.15,East,93,2.0,4.0,83,0.00,,SKC,0.00,VWS V14.01,2013-02-02 03:43:00,
2013-02-01 21:48:00,0.8,-3.1,30.15,East,83,0.0,4.0,83,0.00,,SKC,0.00,VWS V14.01,2013-02-02 03:48:00,
2013-02-01 21:53:00,0.8,-3.1,30.15,East,83,2.0,4.0,83,0.00,,SKC,0.00,VWS V14.01,2013-02-02 03:53:00,
2013-02-01 21:58:00,0.7,-3.2,30.15,East,86,4.0,4.0,83,0.00,,SKC,0.00,VWS V14.01,2013-02-02 03:58:00,
2013-02-01 22:03:00,0.7,-3.2,30.15,East,92,1.0,5.0,83,0.00,,SKC,0.00,VWS V14.01,2013-02-02 04:03:00,
2013-02-01 22:08:00,0.8,-3.1,30.15,East,91,1.0,5.0,83,0.00,,SKC,0.00,VWS V14.01,2013-02-02 04:08:00,
2013-02-01 22:13:00,0.8,-3.1,30.15,East,84,0.0,5.0,83,0.00,,SKC,0.00,VWS V14.01,2013-02-02 04:13:00,
2013-02-01 22:18:00,0.8,-3.1,30.15,East,82,0.0,5.0,83,0.00,,SKC,0.00,VWS V14.01,2013-02-02 04:18:00,
2013-02-01 22:23:00,0.7,-3.2,30.15,East,82,1.0,5.0,83,0.00,,SKC,0.00,VWS V14.01,2013-02-02 04:23:00,
2013-02-01 22:28:00,0.7,-3.2,30.15,East,82,0.0,5.0,83,0.00,,SKC,0.00,VWS V14.01,2013-02-02 04:28:00,
2013-02-01 22:33:00,0.7,-3.2,30.14,East,82,1.0,3.0,83,0.00,,SKC,0.00,VWS V14.01,2013-02-02 04:33:00,
2013-02-01 22:38:00,0.8,-3.1,30.15,East,82,0.0,3.0,83,0.00,,SKC,0.00,VWS V14.01,2013-02-02 04:38:00,
2013-02-01 22:43:00,0.7,-3.0,30.15,East,82,0.0,3.0,84,0.00,,SKC,0.00,VWS V14.01,2013-02-02 04:43:00,
2013-02-01 22:48:00,0.7,-3.0,30.15,East,82,0.0,3.0,84,0.00,,SKC,0.00,VWS V14.01,2013-02-02 04:48:00,
2013-02-01 22:53:00,0.7,-3.2,30.16,East,82,0.0,3.0,83,0.00,,SKC,0.00,VWS V14.01,2013-02-02 04:53:00,
2013-02-01 22:58:00,0.7,-3.0,30.16,East,82,0.0,3.0,84,0.00,,SKC,0.00,VWS V14.01,2013-02-02 04:58:00,
2013-02-01 23:00:00,0.7,-3.0,30.16,East,82,0.0,0.0,84,0.00,,SKC,0.00,VWS V14.01,2013-02-02 05:00:00,
2013-02-01 23:01:00,0.7,-3.0,30.16,East,82,0.0,0.0,84,0.00,,SKC,0.00,VWS V14.01,2013-02-02 05:01:00,
2013-02-01 23:06:00,0.7,-3.0,30.16,East,82,1.0,1.0,84,0.00,,SKC,0.00,VWS V14.01,2013-02-02 05:06:00,
2013-02-01 23:11:00,0.7,-3.0,30.16,East,82,0.0,1.0,84,0.00,,SKC,0.00,VWS V14.01,2013-02-02 05:11:00,
2013-02-01 23:16:00,0.7,-3.0,30.15,East,82,0.0,1.0,84,0.00,,SKC,0.00,VWS V14.01,2013-02-02 05:16:00,
2013-02-01 23:21:00,0.7,-3.0,30.16,East,82,0.0,1.0,84,0.00,,SKC,0.00,VWS V14.01,2013-02-02 05:21:00,
2013-02-01 23:26:00,0.7,-3.0,30.16,East,82,0.0,1.0,84,0.00,,SKC,0.00,VWS V14.01,2013-02-02 05:26:00,
2013-02-01 23:31:00,0.7,-3.0,30.16,East,82,0.0,0.0,84,0.00,,SKC,0.00,VWS V14.01,2013-02-02 05:31:00,
2013-02-01 23:36:00,0.7,-3.0,30.16,East,82,0.0,1.0,84,0.00,,SKC,0.00,VWS V14.01,2013-02-02 05:36:00,
2013-02-01 23:41:00,0.7,-3.0,30.16,East,82,0.0,1.0,84,0.00,,SKC,0.00,VWS V14.01,2013-02-02 05:41:00,
2013-02-01 23:46:00,0.6,-3.3,30.16,East,82,0.0,1.0,83,0.00,,SKC,0.00,VWS V14.01,2013-02-02 05:46:00,
2013-02-01 23:51:00,0.7,-3.0,30.16,NE,35,0.0,1.0,84,0.00,,SKC,0.00,VWS V14.01,2013-02-02 05:51:00,
2013-02-01 23:56:00,0.6,-3.3,30.16,NE,35,0.0,1.0,83,0.00,,SKC,0.00,VWS V14.01,2013-02-02 05:56:00,